Location: Home
(42.5358°N, 72.7383°W)
Time: 13:49:43
(UTC-05:00)

Explorer 11/Cluster Stage 4 - Pass Details

Date: 21 December 2025
Orbit: 463 x 1179 km, 28.8° (Epoch: 21 January)

Event Time Altitude Azimuth Distance (km) Brightness Sun altitude
Rises 20:10:36 0° 256° (WSW) 4,053 11.0 -41.3°
Reaches altitude 10° 20:15:37 10° 230° (SW) 3,038 9.9 -42.2°
Enters shadow 20:18:15 12° 209° (SSW) 2,815 9.5 -42.7°
